151  
SXUS55 KTWC 201745  
OSOTWC  
 
WEATHER ROUNDUP FOR SOUTHEAST ARIZONA  
NATIONAL WEATHER SERVICE TUCSON AZ  
1045 AM MST WED FEB 20 2019  
 
AZZ504>506-514-201845-  
LOCATION SKY/WX TMP DP RH WIND PRES REMARKS  
TUCSON SUNNY 43 19 38 SE9 30.03F  
DAVIS-MONTHAN SUNNY 42 20 40 SE6 30.01F  
CHILDRENS PARK N/A N/A N/A 67 E3 PIMA CO DEQ  
ALVERNON/22ND N/A 36 N/A N/A SE4 PIMA CO DEQ  
CHERRY/GLENN N/A N/A N/A N/A N/A PIMA CO DEQ  
TANGERINE N/A 40 N/A N/A SE4 PIMA CO DEQ  
CONTL RANCH N/A 35 24 63 SE6 PIMA CO DEQ  
GRANT/1ST N/A 36 22 57 SE4 PIMA CO DEQ  
CRAYCROFT/22ND N/A 37 22 54 S6 PIMA CO DEQ  
GOLFLINKS/KOLB N/A N/A N/A N/A N/A PIMA CO DEQ  
AJO/12TH N/A 36 23 60 SE4 PIMA CO DEQ  
FAIRGROUNDS N/A 34 N/A N/A SE8 PIMA CO DEQ  
SAGUARO N/A 44 23 43 CALM *SABINO CYN  
SAN CARLOS N/A 38 27 65 CALM *SAN CARLOS  
GREEN VALLEY N/A 35 20 53 S8 PIMA CO DEQ  
HORSE CAMP CYN N/A 32 17 54 E10 *ARAVAIPA CYN  
RINCON MTNS N/A 31 -2 23 W3 *NR MANNING CAMP  

 
 
AZZ509>511-201845-  
LOCATION SKY/WX TMP DP RH WIND PRES REMARKS  
SAFFORD SUNNY 40 17 39 SE3 30.01S  
STRAY HORSE N/A 20 7 56 SW3G16 *  
TRAIL CABIN N/A 28 11 48 NW3 *N OF GRANVILLE  
BLACK HILLS N/A 39 19 45 S3 *N OF FT THOMAS  
DRY LAKE N/A 27 11 51 W3 *NATANES MTNS  
NOON CREEK N/A 36 13 39 E4 *PINALENO MTNS  
COLUMBINE N/A 15 -7 35 SW3G10 *PINALENO MTNS  
GUTHRIE N/A 28 11 48 NW3G10 *SW OF GUTHRIE  

 
 
AZZ502-503-513-201845-  
LOCATION SKY/WX TMP DP RH WIND PRES REMARKS  
NOGALES SUNNY 39 16 39 S5 30.00S  
SELLS N/A 44 21 40 E3 *  
SASABE N/A 39 19 44 S3 *ALTAR VLY  
HOPKINS N/A 32 12 44 E3 *SANTA RITA MTNS  
CARR CYN N/A 37 13 37 E3 *W OF HEREFORD  

 
 
AZZ507-508-512-201845-  
LOCATION SKY/WX TMP DP RH WIND PRES REMARKS  
SIERRA VISTA SUNNY 37 11 34 CALM 29.99S  
DOUGLAS SUNNY 37 14 38 CALM 30.00F  
EMPIRE MTNS N/A 39 11 32 SW2 *LAS CIENEGAS NCA  
MULESHOE RANCH N/A 36 13 39 CALM *PRESERVE  
HEADQUARTERS N/A 36 8 31 W3 *CHIRICAHUA MTNS  

 
   
............................NOTES..........................
 
 
THIS IS AN AUTOMATED COLLECTIVE WITH MINIMAL QUALITY CONTROL.  
PIMA CO DEQ SITES HAVE NONSTANDARD WIND SENSOR HEIGHTS.  
PIMA CO DEQ SITES DO NOT REPORT WIND GUSTS.  
* INDICATES WIND SENSORS LOCATED AT 20 FEET INSTEAD OF 33 FEET.   
.............................KEY...........................
 
 
SKY/WX - SKY CONDITION/WEATHER  
TMP - TEMPERATURE IN FAHRENHEIT  
DP - DEWPOINT IN FAHRENHEIT  
RH - RELATIVE HUMIDITY IN PERCENT  
WIND - DIRECTION AND SPEED IN MILES PER HOUR (MPH)  
VRB - VARIABLE WIND DIRECTION  
PRES - MEAN SEA LEVEL PRESSURE IN INCHES OF MERCURY  
F - FALLING PRESSURE R - RISING PRESSURE  
S - STEADY PRESSURE  
VSB - VISIBILITY IN MILES  
HX - HEAT INDEX IN FAHRENHEIT  
WCI - WIND CHILL INDEX IN FAHRENHEIT  
N/A - NOT AVAILABLE  
AFB - AIR FORCE BASE  
DAVIS-MONTHAN IS DAVIS-MONTHAN AIR FORCE BASE  
CYN - CANYON  
MTNS - MOUNTAINS  
NCA - NATIONAL CONSERVATION AREA  
NR - NEAR  
VLY - VALLEY  
CONTL - CONTINENTAL  
PIMA CO DEQ - PIMA COUNTY DEPT OF ENVIRONMENTAL QUALITY  
 
CLICK HERE TO GO TO PREVIOUS BULLETINS.

The Nexlab AZ Page Main Text Page